• In Uzbekistan
  • List of Countries
  • For 7 days
  • Water Temperature
  • Satellite Maps
  • Weather Map
  • Weather Widgets
  • user-avatar
    Login

    Hourly Weather Xi'an

    Today, 17 June, Monday

    Time Temperature Precipitation Wind Pressure Humidity
    00:00 +26°C° 0 mm 2 mps 721 mmHg 54%
    01:00 +26°C° 0 mm 2 mps 720 mmHg 55%
    02:00 +25°C° 0 mm 2 mps 720 mmHg 57%
    03:00 +25°C° 0 mm 2 mps 720 mmHg 58%
    04:00 +24°C° 0 mm 1 mps 720 mmHg 59%
    05:00 +25°C° 0 mm 1 mps 720 mmHg 56%
    06:00 +27°C° 0 mm 1 mps 720 mmHg 52%
    07:00 +28°C° 0 mm 1 mps 721 mmHg 48%
    08:00 +30°C° 0 mm 2 mps 721 mmHg 43%
    09:00 +31°C° 0 mm 2 mps 721 mmHg 38%
    10:00 +34°C° 0 mm 2 mps 721 mmHg 34%
    11:00 +35°C° 0 mm 2 mps 721 mmHg 31%
    12:00 +36°C° 0 mm 2 mps 720 mmHg 29%
    13:00 +37°C° 0 mm 2 mps 720 mmHg 26%
    14:00 +37°C° 0 mm 2 mps 720 mmHg 27%
    15:00 +37°C° 0 mm 3 mps 720 mmHg 28%
    16:00 +37°C° 0 mm 3 mps 720 mmHg 28%
    17:00 +36°C° 0 mm 3 mps 720 mmHg 33%
    18:00 +34°C° 0 mm 4 mps 720 mmHg 38%
    19:00 +33°C° 0 mm 4 mps 720 mmHg 43%
    20:00 +32°C° 0 mm 4 mps 720 mmHg 47%
    21:00 +30°C° 0 mm 3 mps 721 mmHg 50%
    22:00 +28°C° 0 mm 2 mps 721 mmHg 54%
    23:00 +28°C° 0 mm 2 mps 721 mmHg 55%

    Tomorrow, 18 June, Tuesday

    Time Temperature Precipitation Wind Pressure Humidity
    00:00 +28°C° 0 mm 2 mps 721 mmHg 57%
    01:00 +27°C° 0 mm 2 mps 720 mmHg 58%
    02:00 +27°C° 0 mm 2 mps 720 mmHg 59%
    03:00 +26°C° 0 mm 1 mps 720 mmHg 60%
    04:00 +26°C° 0 mm 1 mps 720 mmHg 61%
    05:00 +27°C° 0 mm 1 mps 720 mmHg 58%
    06:00 +28°C° 0 mm 1 mps 720 mmHg 55%
    07:00 +29°C° 0 mm 1 mps 720 mmHg 53%
    08:00 +30°C° 0 mm 1 mps 721 mmHg 48%
    09:00 +32°C° 0 mm 1 mps 721 mmHg 43%
    10:00 +34°C° 0 mm 1 mps 721 mmHg 38%
    11:00 +34°C° 0 mm 1 mps 720 mmHg 37%
    12:00 +36°C° 0 mm 2 mps 720 mmHg 36%
    13:00 +36°C° 0 mm 2 mps 719 mmHg 36%
    14:00 +36°C° 0 mm 2 mps 719 mmHg 37%
    15:00 +35°C° 0 mm 3 mps 719 mmHg 39%
    16:00 +35°C° 0 mm 3 mps 718 mmHg 41%
    17:00 +34°C° 0 mm 3 mps 718 mmHg 44%
    18:00 +33°C° 0 mm 3 mps 718 mmHg 47%
    19:00 +31°C° 0 mm 3 mps 718 mmHg 50%
    20:00 +31°C° 0 mm 3 mps 719 mmHg 51%
    21:00 +30°C° 0 mm 2 mps 719 mmHg 52%
    22:00 +29°C° 0 mm 2 mps 719 mmHg 54%
    23:00 +29°C° 0 mm 2 mps 719 mmHg 55%

    Day after tomorrow, 19 June, Wednesday

    Time Temperature Precipitation Wind Pressure Humidity
    00:00 +28°C° 0 mm 2 mps 719 mmHg 56%
    01:00 +28°C° 0 mm 2 mps 719 mmHg 57%
    02:00 +27°C° 0 mm 2 mps 719 mmHg 58%
    03:00 +27°C° 0 mm 1 mps 718 mmHg 59%
    04:00 +27°C° 0 mm 1 mps 718 mmHg 60%
    05:00 +27°C° 0 mm 1 mps 718 mmHg 58%
    06:00 +28°C° 0 mm 1 mps 719 mmHg 56%
    07:00 +29°C° 0 mm 1 mps 719 mmHg 54%
    08:00 +29°C° 0 mm 1 mps 719 mmHg 54%
    09:00 +30°C° 0 mm 2 mps 719 mmHg 53%
    10:00 +30°C° 0 mm 2 mps 718 mmHg 53%
    11:00 +33°C° 0 mm 3 mps 718 mmHg 48%
    12:00 +35°C° 0 mm 3 mps 718 mmHg 44%
    13:00 +36°C° 0 mm 4 mps 718 mmHg 39%
    14:00 +36°C° 0 mm 4 mps 717 mmHg 40%
    15:00 +36°C° 0 mm 4 mps 717 mmHg 40%
    16:00 +35°C° 0 mm 5 mps 717 mmHg 41%
    17:00 +34°C° 0 mm 4 mps 717 mmHg 44%
    18:00 +33°C° 0 mm 4 mps 717 mmHg 48%
    19:00 +32°C° 0 mm 4 mps 717 mmHg 52%
    20:00 +30°C° 0 mm 3 mps 717 mmHg 55%
    21:00 +29°C° 0 mm 3 mps 718 mmHg 57%
    22:00 +29°C° 0 mm 3 mps 718 mmHg 60%
    23:00 +28°C° 0.2 mm 2 mps 718 mmHg 63%

    20 June, Thursday

    Time Temperature Precipitation Wind Pressure Humidity
    00:00 +28°C° 0.2 mm 2 mps 717 mmHg 67%
    01:00 +27°C° 0.2 mm 1 mps 717 mmHg 70%
    02:00 +27°C° 0.2 mm 2 mps 717 mmHg 72%
    03:00 +26°C° 0.2 mm 2 mps 717 mmHg 73%
    04:00 +26°C° 0.2 mm 2 mps 716 mmHg 75%
    05:00 +26°C° 0 mm 2 mps 717 mmHg 77%
    06:00 +26°C° 0 mm 3 mps 717 mmHg 78%
    07:00 +25°C° 0 mm 3 mps 717 mmHg 80%
    08:00 +25°C° 0.6 mm 3 mps 717 mmHg 81%
    09:00 +23°C° 0.6 mm 4 mps 718 mmHg 83%
    10:00 +23°C° 0.6 mm 4 mps 718 mmHg 84%
    11:00 +23°C° 0.2 mm 4 mps 718 mmHg 83%
    12:00 +23°C° 0.2 mm 4 mps 718 mmHg 81%
    13:00 +24°C° 0.2 mm 3 mps 718 mmHg 79%
    14:00 +24°C° 0.1 mm 3 mps 718 mmHg 79%
    15:00 +22°C° 0.1 mm 3 mps 718 mmHg 79%
    16:00 +23°C° 0.1 mm 2 mps 718 mmHg 79%
    17:00 +23°C° 0.1 mm 2 mps 719 mmHg 80%
    18:00 +23°C° 0.1 mm 2 mps 719 mmHg 81%
    19:00 +23°C° 0.1 mm 1 mps 719 mmHg 81%
    20:00 +23°C° 0 mm 1 mps 720 mmHg 82%
    21:00 +23°C° 0 mm 1 mps 720 mmHg 82%
    22:00 +21°C° 0 mm 0 mps 720 mmHg 82%
    23:00 +21°C° 0 mm 0 mps 720 mmHg 82%

    21 June, Friday

    Time Temperature Precipitation Wind Pressure Humidity
    00:00 +22°C° 0 mm 1 mps 720 mmHg 82%
    01:00 +22°C° 0 mm 1 mps 720 mmHg 83%
    02:00 +22°C° 0 mm 1 mps 720 mmHg 83%
    03:00 +22°C° 0 mm 1 mps 720 mmHg 83%
    04:00 +22°C° 0 mm 1 mps 720 mmHg 84%
    05:00 +22°C° 0 mm 1 mps 720 mmHg 83%
    06:00 +23°C° 0 mm 1 mps 721 mmHg 82%
    07:00 +23°C° 0 mm 1 mps 721 mmHg 81%
    08:00 +24°C° 0 mm 1 mps 721 mmHg 77%
    09:00 +24°C° 0 mm 1 mps 721 mmHg 73%
    10:00 +25°C° 0 mm 1 mps 721 mmHg 69%
    11:00 +27°C° 0 mm 1 mps 721 mmHg 62%
    12:00 +29°C° 0 mm 2 mps 720 mmHg 55%
    13:00 +31°C° 0 mm 2 mps 720 mmHg 48%
    14:00 +32°C° 0.1 mm 2 mps 720 mmHg 46%
    15:00 +32°C° 0.1 mm 1 mps 719 mmHg 45%
    16:00 +33°C° 0.1 mm 1 mps 719 mmHg 43%
    17:00 +32°C° 0.1 mm 1 mps 719 mmHg 46%
    18:00 +31°C° 0.1 mm 2 mps 720 mmHg 49%
    19:00 +30°C° 0.1 mm 2 mps 720 mmHg 52%
    20:00 +29°C° 0 mm 2 mps 720 mmHg 55%
    21:00 +28°C° 0 mm 2 mps 721 mmHg 58%
    22:00 +28°C° 0 mm 2 mps 721 mmHg 61%
    23:00 +27°C° 0 mm 2 mps 721 mmHg 62%

    22 June, Saturday

    Time Temperature Precipitation Wind Pressure Humidity
    00:00 +27°C° 0 mm 2 mps 721 mmHg 63%
    01:00 +26°C° 0 mm 2 mps 720 mmHg 64%
    02:00 +26°C° 0 mm 2 mps 720 mmHg 64%
    03:00 +25°C° 0 mm 2 mps 720 mmHg 64%
    04:00 +25°C° 0 mm 2 mps 720 mmHg 64%
    05:00 +27°C° 0 mm 2 mps 721 mmHg 58%
    06:00 +28°C° 0 mm 2 mps 721 mmHg 53%
    07:00 +30°C° 0 mm 2 mps 721 mmHg 48%
    08:00 +33°C° 0 mm 3 mps 721 mmHg 41%
    09:00 +35°C° 0 mm 4 mps 721 mmHg 33%
    10:00 +37°C° 0 mm 5 mps 721 mmHg 26%
    11:00 +39°C° 0 mm 5 mps 721 mmHg 25%
    12:00 +39°C° 0 mm 6 mps 720 mmHg 25%
    13:00 +40°C° 0 mm 6 mps 720 mmHg 24%
    14:00 +40°C° 0 mm 6 mps 720 mmHg 25%
    15:00 +39°C° 0 mm 6 mps 720 mmHg 26%
    16:00 +39°C° 0 mm 6 mps 719 mmHg 27%
    17:00 +36°C° 0 mm 6 mps 719 mmHg 32%
    18:00 +34°C° 0 mm 5 mps 720 mmHg 37%
    19:00 +32°C° 0 mm 5 mps 720 mmHg 42%
    20:00 +32°C° 0 mm 4 mps 720 mmHg 44%
    21:00 +30°C° 0 mm 4 mps 720 mmHg 46%
    22:00 +29°C° 0 mm 3 mps 721 mmHg 48%
    23:00 +29°C° 0 mm 4 mps 721 mmHg 48%
    Show more